Location: Choisy
(48.7685°N, 2.4187°E)
Time: 12:51:55
(UTC+00:00)

ATLAS 3B R/B - Pass Details

Date: 06 June 2022
Orbit: 976 x 1218 km, 63.8° (Epoch: 20 June)

Event Time Altitude Azimuth Distance (km) Brightness Sun altitude
Rises 21:30:43 0° 308° (NW) 4,013 7.2 -12.1°
Reaches altitude 10° 21:34:51 10° 286° (WNW) 3,091 5.8 -12.5°
Maximum altitude 21:38:30 15° 256° (WSW) 2,787 5.1 -12.8°
Drops below altitude 10° 21:42:14 10° 226° (SW) 3,140 5.0 -13.1°
Sets 21:46:30 0° 204° (SSW) 4,118 5.4 -13.4°
